www.pogodaiklimat.ru

Погода и климат >> Архив погоды >> Индонезия >> Surabaya Gedangan


ПОГОДА в Surabaya Gedangan

  • Прогноз погоды в Surabaya Gedangan
  • Монитор погоды в Surabaya Gedangan
  • Климат города

АРХИВ ПОГОДЫ в Surabaya Gedangan

Время (UTC), дата Ветер
(напр.,м/с)
 
Видим.   Явления Облачность Т
(С)
Тd
(С)
f
(%)
Тe
(С)
Тes
(С)
Комфортность P
(гПа)
Po
(гПа)
Тmin
(С)
Tmax
(С)
R
(мм)
R24
(мм)
S
(см)
03 14.10 С 1 12 км 4/4 600 м
[Cu hum]
+33.9 +22.6 52 +44 +57 опасность
перегрева
1009.0 1008.6
06 14.10 В 3 12 км 5/1 600 м
[Sc diur, vesp Ci fib]
+35.0 +23.2 51 +46 +59 опасность
перегрева
1006.2 1005.9
09 14.10 ЮВ 4 12 км 5/1 600 м
[Sc diur, vesp Ci fib]
+34.0 +22.3 51 +43 +45 опасность
перегрева
1004.9 1004.5
12 14.10 ЮВ 3 9000 м 4/1 600 м
[Cu hum Ci sp]
+31.4 +24.2 66 +44 +44 опасность
перегрева
1007.7 1007.3 +36.5
15 14.10 СВ 3 9000 м 3/1 600 м
[Cu hum Ci fib]
+29.7 +24.7 75 +42 +42 опасность
перегрева
1009.0 1008.7
18 14.10 З 3 9000 м 4/3 600 м
[Cu hum Ac trans Ci fib]
+28.5 +24.2 78 +40 +40 очень
душно
1007.5 1007.2
21 14.10 З 2 9000 м 3/0
[Ci fib]
+27.4 +24.2 83 +38 +38 очень
душно
1007.6 1007.3
00 15.10 З 1 9000 м 9/3 600 м
[Cu hum Ac As Ci fib]
+27.8 +22.4 72 +36 +38 очень
душно
1009.4 1009.0 +26.9
03 15.10 СВ 2 11 км 6/3 600 м
[Cu hum Ci fib]
+32.4 +24.1 62 +45 +58 опасность
перегрева
1009.1 1008.7
06 15.10 ЮВ 2 8000 м 5/3 540 м
[Cu med, cong As trans Ci fib]
+35.3 +23.5 51 +46 +58 опасность
перегрева
1006.4 1006.0
09 15.10 ЮВ 4 8000 м 6/3 540 м
[Cu med, cong As trans Ci fib]
+34.2 +24.1 56 +46 +48 опасность
перегрева
1005.6 1005.2
12 15.10 ЮВ 3 8000 м 1/0
[Ac trans]
+30.9 +24.9 70 +44 +44 опасность
перегрева
1008.1 1007.7 +36.1
15 15.10 ЮВ 3 8000 м 5/3 600 м
[Sc Ac trans]
+29.9 +24.2 72 +42 +42 опасность
перегрева
1010.1 1009.7
18 15.10 ЮЗ 1 8000 м в посл. час дождь 5/3 600 м
[Sc Ac trans]
+29.3 +25.0 78 +42 +42 опасность
перегрева
1009.0 1008.6 0.0
21 15.10 штиль 0 8000 м 5/0
[Ac trans]
+27.7 +24.0 80 +38 +38 очень
душно
1008.6 1008.2
00 16.10 З 2 9000 м 8/3 600 м
[Cu hum As trans]
+28.0 +23.9 78 +39 +40 очень
душно
1010.0 1009.6 +27.0 0.0
03 16.10 СВ 2 10 км 8/4 600 м
[Cu med, cong As trans Ci fib]
+32.4 +24.3 62 +45 +52 опасность
перегрева
1009.1 1008.7
06 16.10 ЮВ 3 10 км 8/4 600 м
[Cu med, cong As trans]
+34.2 +24.1 56 +46 +52 опасность
перегрева
1006.7 1006.4
09 16.10 СЗ 1 9000 м осадки на расстоянии 9/6 540 м
[Cb cap As op Ci fib]
+30.4 +24.4 70 +42 +43 опасность
перегрева
1007.3 1006.9
12 16.10 СВ 1 7000 м в посл. час дождь 9/4 600 м
[Cu hum As trans Ci fib]
+29.0 +24.9 79 +42 +42 опасность
перегрева
1009.6 1009.2 +34.3 0.0
15 16.10 СВ 2 8000 м 9/4 600 м
[Cu hum As trans Ci fib]
+28.0 +25.1 84 +40 +40 очень
душно
1010.9 1010.6
18 16.10 С 1 8000 м 6/3 600 м
[Cu hum As trans Ci fib]
+27.6 +24.9 85 +39 +39 очень
душно
1009.6 1009.2 0.0
21 16.10 З 1 8000 м 6/3 600 м
[Cu hum As trans Ci fib]
+27.0 +24.4 86 +38 +38 очень
душно
1008.7 1008.4
00 17.10 штиль 0 9000 м 8/3 600 м
[Cu hum Ac As Ci fib]
+27.2 +24.6 86 +39 +41 очень
душно
1010.5 1010.2 +26.5 0.0
03 17.10 СЗ 2 11 км 9/3 600 м
[Cu hum As op Ci fib]
+31.2 +25.0 70 +45 +53 опасность
перегрева
1011.8 1011.4
06 17.10 СЗ 2 11 км 9/4 600 м
[Cu hum As op Ci fib]
+33.6 +24.1 58 +46 +52 опасность
перегрева
1008.7 1008.3
09 17.10 СВ 3 10 км 9/4 600 м
[Cu hum As op Ci fib]
+31.4 +26.1 74 +47 +48 опасность
перегрева
1007.8 1007.4
12 17.10 Ю 3 9000 м 9/3 600 м
[Cu hum As op Ci fib]
+29.6 +24.8 75 +42 +42 опасность
перегрева
1008.9 1008.6 +34.0
15 17.10 ЮВ 2 9000 м 9/0
[As op Ci fib]
+28.8 +23.6 74 +39 +39 очень
душно
1009.5 1009.1
18 17.10 ЮЗ 2 9000 м 8/0
[Ac trans Ci fib]
+27.4 +24.2 83 +38 +38 очень
душно
1008.5 1008.1
21 17.10 З 2 9000 м 6/0
[Ac trans Ci fib]
+26.8 +24.2 86 +37 +37 очень
душно
1008.9 1008.6
00 18.10 штиль 0 9000 м 4/0
[Ac trans Ci fib]
+27.0 +24.0 84 +37 +41 очень
душно
1010.8 1010.4 +26.4
03 18.10 С 1 10 км 4/3 600 м
[Cu hum Ci fib]
+32.6 +24.5 62 +45 +60 опасность
перегрева
1010.3 1009.9
06 18.10 В 4 11 км 5/3 600 м
[Cu hum As trans Ci fib]
+34.6 +24.4 56 +47 +56 опасность
перегрева
1007.7 1007.3
09 18.10 ЮВ 6 10 км 6/3 600 м
[Cu hum Ac As Ci fib]
+32.6 +24.5 62 +45 +46 опасность
перегрева
1007.0 1006.7
12 18.10 СЗ 1 9000 м 4/1 600 м
[Cu hum As trans Ci fib]
+30.0 +24.8 74 +43 +43 опасность
перегрева
1009.6 1009.2 +34.8
15 18.10 З 1 9000 м 5/1 600 м
[Cu hum Ac As Ci fib]
+29.3 +25.2 79 +43 +43 опасность
перегрева
1011.3 1010.9
18 18.10 З 2 8000 м 4/3 600 м
[Sc diur, vesp Ac trans Ci fib]
+28.3 +23.6 76 +39 +39 очень
душно
1010.1 1009.8
21 18.10 ЮЗ 3 8000 м 4/3 600 м
[Sc diur, vesp Ci fib]
+27.4 +24.0 82 +38 +38 очень
душно
1009.5 1009.2
00 19.10 ЮВ 2 11 км 8/3 600 м
[Cu hum Ac trans Ci fib]
+28.4 +24.1 78 +40 +42 очень
душно
1011.6 1011.2 +26.4
03 19.10 СВ 4 12 км 8/4 600 м
[Cu med, cong Ac trans Ci sp]
+32.8 +24.5 62 +46 +51 опасность
перегрева
1011.2 1010.8
06 19.10 ЮВ 3 12 км 6/4 600 м
[Cu med, cong Ac trans Ci fib]
+33.5 +24.0 58 +45 +54 опасность
перегрева
1008.9 1008.5
09 19.10 ЮВ 2 10 км 5/3 600 м
[Cu med, cong Ac trans Ci fib]
+33.6 +24.1 58 +46 +48 опасность
перегрева
1007.9 1007.5
12 19.10 штиль 0 10 км 4/3 600 м
[Cu hum Ci fib]
+30.0 +23.6 69 +41 +41 опасность
перегрева
1010.5 1010.1 +34.6
15 19.10 З 2 10 км 3/0
[Ci fib]
+28.4 +23.7 76 +39 +39 очень
душно
1012.2 1011.8
18 19.10 штиль 0 8000 м 6/3 600 м
[Cu hum As trans Ci fib]
+27.2 +23.6 81 +37 +37 очень
душно
1012.4 1012.1
21 19.10 З 1 10 км 3/0
[Ci fib]
+26.9 +24.1 85 +37 +37 очень
душно
1011.8 1011.4
00 20.10 штиль 0 7000 м ясно +27.5 +24.0 81 +38 +43 очень
душно
1013.5 1013.2 +26.1
03 20.10 СВ 4 9000 м 4/3 600 м
[Cu hum As trans]
+32.6 +24.5 62 +45 +54 опасность
перегрева
1012.4 1012.0
06 20.10 З 2 10 км 5/3 600 м
[Cu hum As trans]
+36.1 +24.9 53 +50 +60 опасность
перегрева
1009.1 1008.8
09 20.10 ЮВ 2 10 км 5/1 600 м
[Cu hum As trans Ci fib]
+34.6 +23.2 52 +45 +48 опасность
перегрева
1008.4 1008.1
12 20.10 ЮВ 2 2000 м 4/1 600 м
[Cu hum As trans]
+31.6 +25.4 70 +46 +46 опасность
перегрева
1011.0 1010.6 +37.0
15 20.10 Ю 2 9000 м 5/1 600 м
[Cu hum Ac trans Ci fib]
+30.0 +23.6 69 +41 +41 опасность
перегрева
1012.7 1012.3
18 20.10 С 1 9000 м 3/0
[As trans]
+27.6 +23.7 79 +38 +38 очень
душно
1012.3 1012.0
21 20.10 штиль 0 9000 м 3/0
[Ci fib]
+26.4 +22.8 81 +35 +35 очень
душно
1011.8 1011.5
00 21.10 З 2 10 км 4/0
[Ci fib]
+27.7 +23.2 77 +37 +41 очень
душно
1013.4 1013.0 +26.1

 

Местоположение метеостанции Surabaya Gedangan (Индонезия): широта -7.22 долгота 113.71 высота над уровнем моря 113 м.

В архиве по умолчанию представлена погода в Surabaya Gedangan за последнюю неделю. Архивные данные за месяц целиком и за предыдущие месяцы, начиная с января 2011 года, Вы можете получить, выбрав интересующий диапазон дат из раскрывающегося списка и нажав кнопку "Ввод!".

Внимание! Время в таблицах - всемирное. Для получения местного времени необходимо прибавить поправку, которая в Surabaya Gedangan равна 7 ч.

Смотрите также архив погоды в соседних городах и на ближайших метеорологических станциях:

Погода в Kalianget (Индонезия) (33 км)
Погода в Juanda Int Airport (Индонезия) (106 км)
Погода в Surabaya Perak (Индонезия) (110 км)
Погода в Banyuwangi (Индонезия) (134 км)
Погода в Sangkapura BI (Индонезия) (194 км)
Погода в Denpasar (Индонезия) (233 км)
Погода в Ampenan (Индонезия) (297 км)
Погода в Semarang (Индонезия) (365 км)
Погода в Achmad Yani Int Airport (Индонезия) (369 км)
Погода в Sumbawa Besar (Индонезия) (429 км)

Пояснения к столбцам:

Ветер - указаны скорость ветра в м/с - средняя за 10 мин, порывы в срок и между сроками (в фигурных скобках) и направление, откуда дует ветер: С - северный, СВ - северо-восточный, В - восточный, ЮВ - юго-восточный, Ю - южный, ЮЗ - юго-западный, З - западный, СЗ - северо-западный.
Видимость - горизонтальная дальность видимости в метрах или километрах. При видимости от 1 до 10 км при отсутствии осадков обычно наблюдается дымка, при ухудшении видимости до 1 км и менее - туман. В сухую погоду видимость может ухудшаться дымом, пылью или мглою.
Явления - указаны атмосферные явления, наблюдавшиеся в срок или в последний час перед сроком; фигурными скобками обозначены явления, наблюдавшиеся между сроками (за 1-3 часа до срока); квадратными скобками обозначены град или гололедные отложения с указанием их диаметра в мм.
Облачность - указаны через наклонную черту общая и нижняя облачность в баллах и высота нижней границы облаков в метрах; квадратными скобками обозначены формы облаков: Ci - перистые, Cs - перисто-слоистые, Cc - перисто-кучевые, Ac - высококучевые, As - высокослоистые, Sc - слоисто-кучевые, Ns - слоисто-дождевые, Cu - кучевые, Cb - кучево-дождевые. Подробнее классификацию облаков см. в Атласе облаков (PDF).
T - Температура воздуха - температура, измеренная на высоте 2 м над землей.
Td - Температура точки росы - температура, при понижении до которой содержащийся в воздухе водяной пар достигнет насыщения.
f - Относительная влажность воздуха - влажноcть воздуха, измеренная на высоте 2 м над землей.
Te - Эффективная температура - температура, которую ощущает одетый по сезону человек в тени. Характеристика душности погоды. При расчете учитывается влияние влажности воздуха и скорости ветра на теплоощущения человека.
Tes - Эффективная температура на солнце - температура, которую ощущает человек, с поправкой на солнечный нагрев. Характеристика знойности погоды. Зависит от высоты солнца над горизонтом, облачности и скорости ветра. Ночью, в пасмурную погоду, а также при ветре 12 м/с и более поправка равна нулю.
P - Атмосферное давление - приведенное к уровню моря атмосферное давление.
Po - Атмосферное давление - измеренное на уровне метеостанции атмосферное давление.
Tmin - Минимальная температура - минимум температуры воздуха на высоте 2 м над землей.
Tmax - Максимальная температура - максимум температуры воздуха на высоте 2 м над землей.
R - Количество осадков - Количество выпавших осадков за период времени, мм. При наведении курсора мыши на число - период времени, за который выпало указанное количество осадков.
R24 - Количество осадков - Количество выпавших осадков за 24 часа, мм.
S - Снежный покров - Высота снежного покрова, см. При наведении курсора мыши на число - состояние снежного покрова и степень покрытия местности в баллах.